User: anonymous   Login
Location: Invercargill
(46.4000°S, 168.3500°E)
Time: 06:26:25
(UTC+12:00)
Language:

Explorer 7 - Orbit

View from above orbital plane
View from above orbital plane
View from above satellite
View from above satellite

Ground track
Ground track

The orbit data is extracted from the following two-line orbital elements,

1    22U 59009A   19199.89259973 -.00000129 +00000-0 +13986-4 0  9992
2    22 050.2826 231.5309 0140019 060.7108 300.7750 14.94885329420325
Epoch (UTC): 18 July 2019 21:25:20
Eccentricity: 0.0140019
inclination: 50.2826°
perigee height: 485 km
apogee height: 680 km
right ascension of ascending node: 231.5309°
argument of perigee: 60.7108°
revolutions per day: 14.94885329
mean anomaly at epoch: 300.7750°
orbit number at epoch: 42032

The dashed part of the orbit path shows where the satellite is in the earth's shadow,  

DLR